#timestamp,LO_Frequency,Hit,StdDev 
1514455215.7,286047006.5,N
1514455235.5,286047008.5,N
1514455255.4,286047008.4,N
1514455275.2,286047011.5,N
1514455295.0,286047010.7,N
1514455295.9,286047010.7,N
1514455315.8,286047009.6,N
1514455335.6,286047008.6,N
1514455355.4,286047007.8,N
1514455375.3,286047006.5,N
1514455395.1,286047007.5,N
1514455396.0,286047007.5,N
1514455415.8,286047003.5,N
1514455435.7,286047003.4,N
1514455455.5,286047004.4,N
1514455475.3,286047003.0,N
1514455495.2,286047003.8,N
1514455515.9,286047005.1,N
1514455535.7,286047003.0,N
1514455555.5,286047001.4,N
1514455575.4,286047002.4,N
1514455595.2,286047000.3,N
1514455615.0,286047002.6,N
1514455615.9,286047002.6,N
1514455635.8,286047004.4,N
1514455655.6,286047002.9,N
1514455675.4,286047001.9,N
1514455695.3,286046999.8,N
1514455715.1,286046998.1,N
1514455735.8,286046998.6,N
1514455755.7,286047002.6,N
1514455775.5,286046999.9,N
1514455795.3,286046999.5,N
1514455815.2,286047001.2,N
1514455835.9,286046999.3,N
1514455855.7,286047000.6,N
1514455875.6,286047001.2,N
1514455895.4,286046996.9,N
1514455915.2,286046998.1,N
1514455935.0,286046993.3,N
1514455935.9,286046993.3,N
1514455955.8,286046991.7,N
1514455975.6,286046996.4,N
1514455995.4,286046994.8,N
1514456015.3,286046993.2,N
1514456035.1,286046991.5,N
1514456055.8,286046992.2,N
1514456075.7,286046993.0,N
1514456095.5,286046989.9,N
1514456115.3,286046987.0,Y
1514456135.2,286046994.7,P
1514456155.9,286046996.3,N
1514456175.7,286046996.6,N
1514456195.6,286046999.1,N
1514456215.4,286046997.5,N
1514456235.2,286046997.5,N
1514456255.1,286046999.6,N
1514456256.0,286046999.6,N
1514456275.8,286046997.6,N
1514456295.6,286046995.3,Y
1514456315.5,286046995.6,P
1514456335.3,286046991.7,P
1514456355.1,286046990.3,P
1514456375.9,286046990.8,Y
1514456395.7,286047002.7,P
1514456415.5,286047005.3,N
1514456435.4,286047005.6,N
1514456455.2,286047005.3,N
1514456475.0,286047001.3,N
1514456475.9,286047001.3,N
1514456495.8,286047006.0,N
1514456515.6,286047003.8,N
1514456535.4,286046999.9,N
1514456555.2,286046999.7,N
1514456575.1,286047002.3,N
1514456576.0,286047002.3,N
1514456595.8,286047000.8,N
1514456615.6,286046999.9,N
1514456635.5,286047000.3,N
1514456655.3,286047000.0,N
1514456675.1,286047001.9,N
1514456695.9,286046998.2,N
1514456715.7,286047002.6,N
1514456735.5,286047004.1,N
1514456755.4,286047003.9,N
1514456775.2,286047002.3,N
1514456795.0,286047000.4,N
1514456795.9,286047000.4,N
1514456815.8,286047002.5,N
1514456835.6,286047001.5,N
1514456855.4,286046999.8,N
1514456875.2,286046998.6,N
1514456895.1,286046998.6,N
1514456896.0,286046998.6,N
1514456915.8,286046999.3,N
1514456935.6,286046997.7,N
1514456955.5,286046996.6,N
1514456975.3,286046995.2,N
1514456995.1,286046993.6,N
1514457015.9,286046991.9,Y
1514457035.7,286046993.4,P
1514457055.5,286046995.9,N
1514457075.4,286046995.2,N
1514457095.2,286046996.9,N
1514457115.0,286046995.2,N
1514457115.9,286046995.2,N
1514457135.8,286046998.5,N
1514457155.6,286046996.7,N
1514457175.4,286046996.2,N
1514457195.3,286046990.3,Y
1514457215.1,286046997.3,P
1514457216.0,286046997.3,P
1514457235.8,286046998.0,P
1514457255.7,286046998.4,N
1514457275.5,286046999.1,N
1514457295.3,286046999.6,N
1514457315.2,286046996.8,Y
1514457335.9,286047000.9,P
1514457355.7,286047001.1,N
1514457375.6,286046998.8,N
1514457395.4,286047001.1,N
1514457415.2,286047002.2,N
1514457435.0,286046997.0,N
1514457436.0,286046997.0,N
1514457455.8,286047002.7,N
1514457475.6,286046999.9,N
1514457495.4,286047002.1,N
1514457515.3,286047005.6,N
1514457535.1,286047007.2,N
1514457555.8,286047008.2,N
1514457575.7,286047008.5,N
1514457595.5,286047009.7,N
1514457615.3,286047011.1,N
1514457635.2,286047012.0,N
1514457655.9,286047013.5,N
1514457675.7,286047009.7,N
1514457695.6,286047009.1,N
1514457715.4,286047006.1,N
1514457735.2,286047010.4,N
1514457755.0,286047010.8,N
1514457756.0,286047010.8,N
1514457775.8,286047010.5,N
1514457795.6,286047013.3,N
1514457815.4,286047011.2,N
1514457835.3,286047009.6,N
1514457855.1,286047009.4,N
1514457875.8,286047012.2,N
1514457895.7,286047009.6,N
1514457915.5,286047010.5,N
1514457935.3,286047010.0,N
1514457955.2,286047008.4,N
1514457975.9,286047011.6,N
1514457995.7,286047012.5,N
1514458015.6,286047017.1,Y
1514458035.4,286047002.9,P
1514458055.2,286047004.5,N
1514458075.1,286047007.3,N
1514458076.0,286047007.3,Y
1514458095.8,286047002.4,P
1514458115.6,286047004.4,N
1514458135.5,286047000.5,N
1514458155.3,286047001.5,N
1514458175.1,286047001.2,N
1514458195.9,286046997.8,N
1514458215.7,286046996.1,N
1514458235.5,286046997.0,N
1514458255.3,286046997.5,N
1514458275.2,286046997.1,N
1514458295.0,286046996.1,N
1514458295.9,286046996.1,N
1514458315.7,286046997.1,N
1514458335.6,286046995.0,N
1514458355.4,286046995.9,N
1514458375.2,286046993.5,N
1514458395.1,286046992.7,N
1514458396.0,286046992.7,N
1514458415.8,286046991.8,N
1514458435.6,286046993.9,N
1514458455.5,286046990.5,N
1514458475.3,286046994.4,N
1514458495.1,286046996.0,N
1514458515.9,286046994.1,N
1514458535.7,286046994.7,N
1514458555.5,286046993.9,N
1514458575.3,286046990.2,N
1514458595.2,286046987.7,Y
1514458615.0,286046993.4,P
1514458615.9,286046993.4,P
1514458635.8,286046992.1,P
1514458655.6,286046990.5,Y
1514458675.4,286046999.2,P
1514458695.3,286047002.1,N
1514458715.1,286047000.0,N
1514458716.0,286047000.0,N
1514458735.8,286047001.5,N
1514458755.6,286047004.3,N
1514458775.5,286046999.8,N
1514458795.3,286046997.2,N
